Date String (YYYY-MM-DD hh:mm:ss) UTC,Instrument flags,Ambient pressure (hPa),Sample flow (lpm),Bypass flow (lpm),Sample temperature (°C),Ambient temperature (°C),ASC tube jacket temperature (°C),LED temperature (°C),Box temperature (°C),Sample RH (%),Span deviation,Mass concentration (μg/m³),Mass concentration (μg/m³),Mass concentration (μg/m³)
DateTimeUTC,F1_M11,P_M11,Q1_M11,Q2_M11,T1_M11,T2_M11,T3_M11,T4_M11,T5_M11,U1_M11,ZSPAN_M11,X0_M11,X2_M11,X1_M11
2021-09-26 20:00:00,,0825.3,5.00,0.00,29.2,27.8,00.0,38.2,31.0,11.6,0000.8,0014.39,0006.61,0005.70
2021-09-26 20:01:00,,0825.3,4.99,0.00,29.3,28.1,00.0,38.2,31.1,11.8,0000.8,0014.35,0006.55,0005.69
2021-09-26 20:02:00,,0825.3,4.99,0.00,29.3,28.4,00.0,38.2,31.2,11.9,0001.4,0016.10,0006.59,0005.70
2021-09-26 20:03:00,,0825.4,5.01,0.00,29.4,28.2,00.0,38.2,31.2,11.8,0001.6,0016.66,0006.62,0005.71
2021-09-26 20:04:00,,0825.4,5.00,0.00,29.3,26.5,00.0,38.2,30.8,12.0,0002.0,0017.14,0006.62,0005.72
2021-09-26 20:05:00,,0825.3,5.00,0.00,29.1,25.8,00.0,38.2,30.6,12.0,0002.0,0017.39,0006.66,0005.73
2021-09-26 20:06:00,,0825.3,5.00,0.00,29.1,26.2,00.0,38.2,30.6,12.2,0001.7,0017.58,0006.67,0005.73
2021-09-26 20:07:00,,0825.3,4.99,0.00,29.1,26.6,00.0,38.2,30.7,12.4,0001.6,0017.41,0006.65,0005.73
2021-09-26 20:08:00,,0825.3,5.00,0.00,29.1,27.1,00.0,38.2,30.8,12.2,0002.2,0017.00,0006.63,0005.73
2021-09-26 20:09:00,,0825.3,5.00,0.00,29.2,27.5,00.0,38.2,31.0,12.0,0002.8,0016.81,0006.65,0005.75
2021-09-26 20:10:00,,0825.3,5.01,0.00,29.2,27.9,00.0,38.2,31.1,11.9,0003.3,0016.53,0006.63,0005.76
2021-09-26 20:11:00,,0825.3,5.00,0.00,29.3,28.2,00.0,38.2,31.2,12.2,0003.1,0017.48,0006.63,0005.76
2021-09-26 20:12:00,,0825.3,5.00,0.00,29.3,28.4,00.0,38.2,31.3,12.0,0003.2,0017.48,0006.70,0005.77
2021-09-26 20:13:00,,0825.3,5.01,0.00,29.4,27.5,00.0,38.2,31.0,12.1,0003.1,0015.79,0006.70,0005.77
2021-09-26 20:14:00,,0825.3,5.00,0.00,29.2,26.0,00.0,38.2,30.6,12.2,0003.3,0015.30,0006.72,0005.77
2021-09-26 20:15:00,,0825.3,5.01,0.00,29.1,26.0,00.0,38.2,30.5,12.0,0002.5,0014.62,0006.76,0005.79
2021-09-26 20:16:00,,0825.3,5.00,0.00,29.1,26.4,00.0,38.2,30.7,12.0,0002.4,0014.65,0006.75,0005.79
2021-09-26 20:17:00,,0825.3,4.99,0.00,29.1,26.8,00.0,38.2,30.8,12.2,0002.9,0014.70,0006.75,0005.78
2021-09-26 20:18:00,,0825.2,5.01,0.00,29.1,27.2,00.0,38.1,30.9,11.8,0003.0,0014.78,0006.74,0005.77
2021-09-26 20:19:00,,0825.3,4.99,0.00,29.2,27.7,00.0,38.2,31.0,11.8,0002.6,0014.39,0006.72,0005.76
2021-09-26 20:20:00,,0825.3,5.00,0.00,29.2,28.0,00.0,38.2,31.1,11.9,0002.1,0013.69,0006.69,0005.75
2021-09-26 20:21:00,,0825.3,5.00,0.00,29.3,28.3,00.0,38.2,31.2,11.8,0001.7,0012.79,0006.68,0005.72
2021-09-26 20:22:00,,0825.3,5.00,0.00,29.3,27.6,00.0,38.2,31.0,12.0,0001.6,0011.88,0006.69,0005.70
2021-09-26 20:23:00,,0825.2,5.01,0.00,29.2,26.0,00.0,38.2,30.5,12.1,0001.8,0011.20,0006.63,0005.69
2021-09-26 20:24:00,,0825.2,5.01,0.00,29.1,25.9,00.0,38.2,30.5,12.0,0002.1,0011.36,0006.59,0005.66
2021-09-26 20:25:00,,0825.2,5.00,0.00,29.0,26.4,00.0,38.2,30.6,12.0,0001.9,0011.32,0006.55,0005.64
2021-09-26 20:26:00,,0825.2,5.00,0.00,29.0,26.8,00.0,38.1,30.8,11.8,0002.3,0011.34,0006.53,0005.61
2021-09-26 20:27:00,,0825.2,5.01,0.00,29.1,27.2,00.0,38.1,30.9,12.0,0002.1,0011.38,0006.54,0005.59
2021-09-26 20:28:00,,0825.1,5.00,0.00,29.1,27.6,00.0,38.1,31.0,11.8,0001.8,0011.28,0006.53,0005.56
2021-09-26 20:29:00,,0825.1,5.01,0.00,29.2,27.9,00.0,38.2,31.1,12.4,0001.6,0012.26,0006.53,0005.55
2021-09-26 20:30:00,,0825.2,4.99,0.00,29.3,28.2,00.0,38.2,31.2,12.1,0001.7,0013.28,0006.52,0005.55
2021-09-26 20:31:00,,0825.2,5.00,0.00,29.3,27.7,00.0,38.2,31.0,11.9,0001.8,0013.29,0006.52,0005.54
2021-09-26 20:32:00,,0825.1,4.99,0.00,29.2,26.0,00.0,38.2,30.5,12.1,0002.2,0013.84,0006.55,0005.55
2021-09-26 20:33:00,,0825.1,5.01,0.00,29.0,25.9,00.0,38.2,30.4,12.1,0002.3,0015.03,0006.53,0005.54
2021-09-26 20:34:00,,0825.1,5.00,0.00,29.0,26.3,00.0,38.1,30.6,12.3,0001.9,0015.42,0006.55,0005.54
2021-09-26 20:35:00,,0825.1,5.01,0.00,29.0,26.8,00.0,38.1,30.7,12.3,0001.8,0015.37,0006.54,0005.54
2021-09-26 20:36:00,,0825.1,4.99,0.00,29.1,27.2,00.0,38.1,30.8,12.0,0001.7,0015.32,0006.52,0005.53
2021-09-26 20:37:00,,0825.1,5.00,0.00,29.1,27.7,00.0,38.1,31.0,11.7,0001.7,0015.35,0006.53,0005.54
2021-09-26 20:38:00,,0825.1,5.01,0.00,29.2,28.0,00.0,38.1,31.1,11.8,0001.9,0015.12,0006.49,0005.54
2021-09-26 20:39:00,,0825.1,5.01,0.00,29.3,28.3,00.0,38.2,31.2,11.8,0002.3,0015.10,0006.51,0005.55
2021-09-26 20:40:00,,0825.1,5.02,0.00,29.3,28.4,00.0,38.2,31.3,11.8,0002.7,0014.38,0006.52,0005.56
2021-09-26 20:41:00,,0825.0,5.00,0.00,29.3,27.0,00.0,38.2,30.9,11.9,0002.5,0014.13,0006.55,0005.56
2021-09-26 20:42:00,,0825.0,5.01,0.00,29.1,25.8,00.0,38.2,30.5,11.8,0002.4,0014.51,0006.56,0005.57
2021-09-26 20:43:00,,0825.0,4.99,0.00,29.1,26.1,00.0,38.2,30.5,11.9,0002.0,0014.26,0006.51,0005.56
2021-09-26 20:44:00,,0825.0,5.00,0.00,29.1,26.5,00.0,38.1,30.7,12.0,0001.6,0012.94,0006.49,0005.55
2021-09-26 20:45:00,,0825.0,5.01,0.00,29.1,26.9,00.0,38.1,30.8,11.6,0002.1,0012.79,0006.48,0005.54
2021-09-26 20:46:00,,0825.0,4.99,0.00,29.1,27.3,00.0,38.1,30.9,11.5,0001.9,0012.94,0006.49,0005.54
2021-09-26 20:47:00,,0825.0,5.00,0.00,29.2,27.7,00.0,38.1,31.1,11.5,0002.0,0013.01,0006.51,0005.53
2021-09-26 20:48:00,,0825.0,5.00,0.00,29.3,28.1,00.0,38.2,31.2,11.5,0002.6,0013.16,0006.54,0005.52
2021-09-26 20:49:00,,0825.0,5.00,0.00,29.3,28.3,00.0,38.2,31.3,11.3,0002.7,0013.72,0006.51,0005.49
2021-09-26 20:50:00,,0825.0,5.00,0.00,29.3,27.1,00.0,38.2,30.9,11.3,0002.4,0014.48,0006.48,0005.49
2021-09-26 20:51:00,,0824.9,5.01,0.00,29.2,25.8,00.0,38.2,30.5,11.5,0002.0,0014.63,0006.43,0005.48
2021-09-26 20:52:00,,0824.9,4.98,0.00,29.1,26.0,00.0,38.2,30.6,11.5,0002.3,0013.77,0006.37,0005.47
2021-09-26 20:53:00,,0824.9,5.01,0.00,29.1,26.5,00.0,38.1,30.6,11.6,0002.6,0013.31,0006.37,0005.45
2021-09-26 20:54:00,,0824.9,4.99,0.00,29.1,27.0,00.0,38.1,30.8,11.7,0002.7,0013.26,0006.38,0005.45
2021-09-26 20:55:00,,0824.9,5.00,0.00,29.1,27.4,00.0,38.1,30.9,11.6,0003.0,0013.36,0006.40,0005.45
2021-09-26 20:56:00,,0824.9,5.00,0.00,29.2,27.8,00.0,38.1,31.1,11.5,0003.2,0013.44,0006.41,0005.46
2021-09-26 20:57:00,,0824.9,5.01,0.00,29.3,28.1,00.0,38.2,31.2,11.5,0003.4,0013.98,0006.41,0005.45
2021-09-26 20:58:00,,0824.9,5.00,0.00,29.3,27.9,00.0,38.2,31.1,11.7,0003.2,0014.72,0006.41,0005.45
2021-09-26 20:59:00,,0825.0,5.00,0.00,29.2,26.2,00.0,38.2,30.5,11.8,0002.9,0014.69,0006.33,0005.45
